Regional Weather Roundup
Issued by NWS

Home | Current Version | Previous Version | Text Only | Print | Product List | Glossary On
Versions: 1 2 3 4 5 6 7 8 9 10 11 12 13 14 15 16 17 18 19 20 21 22 23 24 25 26 27
000
ASUS45 KCYS 261710
RWRWY

WYOMING REGIONAL WEATHER ROUNDUP
NATIONAL WEATHER SERVICE CHEYENNE WY
1100 AM MDT TUE JUL 26 2016

NOTE:  "FAIR" INDICATES FEW OR NO CLOUDS BELOW 12,000 FEET
WITH NO SIGNIFICANT WEATHER AND/OR OBSTRUCTIONS TO VISIBILITY.

WYZ001-261800-
YELLOWSTONE NATIONAL PARK

CITY           SKY/WX    TMP DP  RH WIND       PRES   REMARKS
LK YELLOWSTONE   N/A     62  38  40 E5        30.40S
W YELLOWSTONE  NOT AVBL

$$
WYZ002>013-054>058-071-098>099-261800-
NORTHERN WYOMING

CITY           SKY/WX    TMP DP  RH WIND       PRES   REMARKS
JACKSON        SUNNY     70  32  24 CALM      30.28F
CODY           FAIR      79  45  29 N8        30.18R
GREYBULL       FAIR      81  45  28 S8        30.09S
WORLAND        FAIR      80  42  25 VRB3      30.11F
SHERIDAN       FAIR      83  46  27 SE5       30.10F
BUFFALO        FAIR      81  44  27 VRB7      30.18F
GILLETTE       FAIR      78  54  43 VRB3      30.12S
HULETT         FAIR      81  52  36 E9        30.11F
NEWCASTLE      FAIR      82  52  34 SW17G28   30.09R

$$
WYZ014>020-022>026-101>103-261800-
CENTRAL WYOMING

CITY           SKY/WX    TMP DP  RH WIND       PRES   REMARKS
BIG PINEY      FAIR      76  30  18 SW3       30.31S
PINEDALE       FAIR      77  25  14 W5        30.32S
DUBOIS         FAIR      77  21  12 E7        30.29S HAZE
LANDER         FAIR      80  41  24 NE9       30.21S
RIVERTON         N/A     78  40  25 SE7       30.20F
CASPER         FAIR      78  50  37 N6        30.20S
DOUGLAS          N/A    N/A N/A N/A MISG      30.14F

$$
WYZ021-027>030-104>119-261800-
SOUTHERN WYOMING

CITY           SKY/WX    TMP DP  RH WIND       PRES   REMARKS
EVANSTON       FAIR      81  32  17 S10G22    30.31F
KEMMERER         N/A     81  32  17 SW7       30.33F
FORT BRIDGER   FAIR      86  29  13 SW15G21   30.33F
ROCK SPRINGS   FAIR      82  32  16 W12       30.28F
DIXON          FAIR      85  35  17 SW10G16   30.31S
RAWLINS        FAIR      83  31  15 W6        30.28F
SARATOGA       FAIR      84  32  15 N9G23     30.31R
LARAMIE        FAIR      83  32  16 W9        30.29F
CHEYENNE       FAIR      88  32  13 NW10      30.20S
TORRINGTON     FAIR      81  58  45 VRB3      30.07R
PINE BLUFFS    FAIR      82  48  30 CALM      30.15S

$$




USA.gov is the U.S. government's official web portal to all federal, state and local government web resources and services.